Covington, KY

6:15 PM EDT on March 28, 2017 (GMT -0400)
Cincinnati-Northern KY International

Weather History for KCVG - November, 2013

Change the Weather History Date:

Friday, November 15, 2013

  Actual Average Record
Temperature  
Mean Temperature 44 °F 46 °F  
Max Temperature 53 °F 54 °F 74 °F (1931)
Min Temperature 35 °F 37 °F 14 °F (1916)
Degree Days  
Heating Degree Days 21 20  
Month to date heating degree days 296 253  
Since 1 July heating degree days 629 615  
Cooling Degree Days 0 0  
Month to date cooling degree days 0 0  
Year to date cooling degree days 1150 1121  
Moisture  
Dew Point 29 °F    
Average Humidity 66    
Maximum Humidity 93    
Minimum Humidity 38    
Precipitation  
Precipitation 0.03 in 0.12 in 1.87 in (2005)
Month to date precipitation 0.60 1.61  
Year to date precipitation 42.98 37.33  
Snow  
Snow 0.00 in 0.00 in 0.40 in (1997)
Month to date snowfall 0.7 0.1  
Since 1 July snowfall 0.7 0.5  
Since 1 September snowfall 0.7 0.5  
Snow Depth 0.00 in    
Sea Level Pressure  
Sea Level Pressure 30.15 in    
Wind  
Wind Speed 8 mph (SSW)    
Max Wind Speed 16 mph    
Max Gust Speed 22 mph    
Visibility 10 miles    
Events Rain    
T = Trace of Precipitation, MM = Missing Value Source: NWS Daily Summary

Daily Weather History Graph

Daily Weather History Graph

Search for Another Location

Airport or City:

Trip Planner

Search our weather history database for the weather conditions in past years. The results will help you decide how hot, cold, wet, or windy it might be!

Date:

Astronomy

Nov. 15, 2013 Rise Set
Actual Time 7:21 AM EST 5:24 PM EST
Civil Twilight 6:53 AM EST 5:52 PM EST
Nautical Twilight 6:21 AM EST 6:25 PM EST
Astronomical Twilight 5:49 AM EST 6:56 PM EST
Moon 4:19 PM EST (11/15) 5:18 AM EST (11/15)
Length of Visible Light 10h 59m
Length of Day
10h 02m
Waxing Gibbous, 96% of the Moon is Illuminated
Nov 15
Waxing Gibbous
Nov 17
Full
Nov 25
Last Quarter
Dec 2
New
Dec 9
First Quarter

Hourly Weather History & Observations

Time (EST) Temp. Windchill Dew Point Humidity Pressure Visibility Wind Dir Wind Speed Gust Speed Precip Events Conditions
12:52 AM 41.0 °F 35.2 °F 19.0 °F 41% 30.16 in 10.0 mi SSW 9.2 mph - N/A   Mostly Cloudy
1:52 AM 41.0 °F 34.7 °F 19.0 °F 41% 30.14 in 10.0 mi SSW 10.4 mph - N/A   Mostly Cloudy
2:52 AM 41.0 °F 35.2 °F 19.0 °F 41% 30.15 in 10.0 mi SSW 9.2 mph - N/A   Mostly Cloudy
3:52 AM 41.0 °F 35.8 °F 19.0 °F 41% 30.15 in 10.0 mi SSW 8.1 mph - N/A   Mostly Cloudy
4:52 AM 39.0 °F 34.0 °F 19.9 °F 46% 30.16 in 10.0 mi South 6.9 mph - N/A   Mostly Cloudy
5:52 AM 37.9 °F 32.7 °F 21.9 °F 53% 30.17 in 10.0 mi South 6.9 mph - N/A   Overcast
6:52 AM 37.9 °F 32.1 °F 19.9 °F 48% 30.17 in 10.0 mi South 8.1 mph - N/A   Overcast
7:52 AM 37.0 °F 30.4 °F 21.0 °F 52% 30.18 in 10.0 mi South 9.2 mph - N/A   Mostly Cloudy
8:52 AM 42.1 °F 36.1 °F 21.0 °F 43% 30.19 in 10.0 mi SSW 10.4 mph - N/A   Mostly Cloudy
9:52 AM 44.1 °F 38.1 °F 21.0 °F 40% 30.19 in 10.0 mi South 11.5 mph - N/A   Overcast
10:52 AM 48.9 °F - 24.1 °F 38% 30.18 in 10.0 mi South 6.9 mph - N/A   Overcast
11:52 AM 51.1 °F - 26.1 °F 38% 30.16 in 10.0 mi SSW 6.9 mph - N/A   Mostly Cloudy
12:52 PM 53.1 °F - 28.0 °F 38% 30.14 in 10.0 mi SSW 12.7 mph - N/A   Overcast
1:52 PM 52.0 °F - 30.0 °F 43% 30.12 in 10.0 mi South 10.4 mph - N/A   Overcast
2:52 PM 51.1 °F - 30.9 °F 46% 30.11 in 10.0 mi SSW 10.4 mph - N/A   Overcast
3:52 PM 50.0 °F - 32.0 °F 50% 30.11 in 10.0 mi South 4.6 mph - N/A   Overcast
4:52 PM 48.9 °F - 35.1 °F 59% 30.12 in 10.0 mi South 5.8 mph - N/A   Overcast
5:52 PM 48.9 °F - 36.0 °F 61% 30.11 in 10.0 mi South 5.8 mph - N/A   Overcast
6:52 PM 46.9 °F - 41.0 °F 80% 30.14 in 9.0 mi South 8.1 mph - 0.01 in Rain Light Rain
7:52 PM 46.0 °F 40.2 °F 43.0 °F 89% 30.14 in 10.0 mi South 12.7 mph - 0.02 in Rain Light Rain
8:52 PM 46.0 °F 42.5 °F 43.0 °F 89% 30.14 in 10.0 mi South 6.9 mph - 0.00 in   Overcast
9:52 PM 46.0 °F 44.8 °F 44.1 °F 93% 30.14 in 10.0 mi SSW 3.5 mph - 0.00 in   Overcast
10:52 PM 46.0 °F 43.9 °F 44.1 °F 93% 30.14 in 10.0 mi SSW 4.6 mph - N/A   Overcast
11:52 PM 46.9 °F - 44.1 °F 90% 30.12 in 10.0 mi SSE 6.9 mph - N/A   Overcast